[[{"header":{"parameterUnit":"m.s-1","parameterCategory":1,"la1":30.2991,"la2":30.254,"lo1":-89.0895,"lo2":-89.0444,"dy":0.0017,"dx":0.0017,"nx":28,"ny":28,"refTime":"2024-06-05T03:00:00:Z","depth":0,"parameterNumber":2,"parameterNumberName":"U-component_of_WINDS"},"data":[0,0,0,0,0,0,0,0,0,0,0,0,0,0,0,0,0,0,0,0,0,0,0,0,0,0,0,0,0,0,0,0,0,0,0,0,0,0,0,0,0,0,0,0,0,0,0,0,0,0,0,0,0,0,0,0,0,0,3.3519,3.3518,0,3.3404,3.3403,3.3401,3.3277,3.3275,3.3273,3.3271,3.3154,3.3153,3.3151,0,0,0,0,0,0,0,0,0,0,0,0,0,3.3628,3.3627,3.3519,3.3517,3.3516,3.3404,3.3403,3.3401,3.3277,3.3275,3.3273,3.3271,3.3154,3.3153,3.3151,0,0,0,0,0,0,0,0,0,0,0,0,0,3.3554,3.3627,3.3519,3.3441,3.3432,3.3405,3.3403,3.3401,3.3277,3.3275,3.3272,3.327,3.3155,3.3153,3.3151,3.3191,0,0,3.3144,3.3143,0,0,0,0,0,0,0,0,3.3559,3.355,3.3454,3.3446,3.3437,3.3352,3.3398,3.333,3.3278,3.3336,3.3271,3.3268,3.3222,3.3214,3.3198,3.3186,3.3181,3.3144,3.3143,3.3142,3.3141,0,0,0,0,0,0,0,3.3564,3.3554,3.3473,3.3452,3.3442,3.341,3.3397,3.3385,3.3296,3.3331,3.3322,3.331,3.3217,3.3201,3.3195,3.3179,3.3144,3.3142,3.3141,3.314,3.3189,3.3192,0,0,0,0,0,0,3.3581,3.356,3.3477,3.347,3.3492,3.3411,3.3395,3.3382,3.3295,3.328,3.3312,3.3304,3.3206,3.3198,3.319,3.3229,3.3142,3.314,3.3138,3.3187,3.319,3.3193,0,0,0,0,0,0,3.3584,3.3575,3.3482,3.3512,3.3498,3.3412,3.3397,3.3381,3.3365,3.3281,3.3265,3.3312,3.3204,3.3193,3.3191,3.3223,3.3139,3.3137,3.3183,3.3188,3.3191,3.3309,0,0,0,0,0,0,3.3588,3.3577,3.3592,3.3513,3.3497,3.3485,3.3399,3.3381,3.3361,3.335,3.3277,3.3262,3.3201,3.3195,3.3189,3.3219,3.3135,3.318,3.3185,3.319,3.3301,3.3316,3.3329,0,0,0,0,0,3.3592,3.363,3.3593,3.3584,3.3514,3.3488,3.3478,3.3406,3.3365,3.3378,3.3324,3.3265,3.3221,3.3196,3.3188,3.3217,3.3178,3.3184,3.319,3.3295,3.3313,3.3328,0,0,0,0,0,0,3.3715,3.3619,3.3576,3.3591,3.3548,3.3467,3.3482,3.3428,3.3396,3.3387,3.3299,3.3284,3.3291,3.3254,3.3228,3.325,3.3191,3.3195,3.3274,3.329,3.3303,3.3311,3.3133,0,0,0,0,0,3.3744,3.3731,3.3647,3.3668,3.3648,3.3569,3.3555,3.3503,3.3456,3.3437,3.3383,3.3339,3.3314,3.33,3.3274,3.3296,3.3276,3.3312,3.3326,3.3337,3.3342,3.3347,3.3361,3.3212,3.3212,3.3212,0,0,3.3803,3.3749,3.3746,3.3691,3.3652,3.3639,3.3555,3.3546,3.3535,3.3436,3.3429,3.3388,3.3333,3.3342,3.3343,3.3311,3.3379,3.3345,3.3355,3.3353,3.3355,3.3369,3.3382,3.3216,3.3215,3.3215,0,0,3.3904,3.3863,3.3874,3.3836,3.3778,3.3724,3.3728,3.3653,3.3622,3.3614,3.3538,3.3524,3.3485,3.3448,3.3424,3.3509,3.3451,3.3503,3.3573,3.3579,3.3591,3.3601,3.3628,3.364,3.3508,3.3508,3.3508,0,3.3986,3.3964,3.3887,3.3881,3.3858,3.3767,3.3776,3.3744,3.368,3.3666,3.3631,3.3578,3.3535,3.3532,3.3552,3.3537,3.3536,3.351,3.3596,3.3605,3.3613,3.3638,3.3649,3.3514,3.3514,3.3513,3.3512,0,3.4065,3.4051,3.4067,3.4006,3.3985,3.3988,3.391,3.3897,3.3847,3.3797,3.3789,3.3733,3.3693,3.3688,3.364,3.3678,3.366,3.3612,3.355,3.3635,3.3657,3.3666,3.3523,3.3521,3.3519,3.3518,0,0,3.424,3.4136,3.4143,3.4113,3.4041,3.4028,3.4026,3.3985,3.3975,3.3934,3.3928,3.3896,3.385,3.3823,3.3769,3.3775,3.3842,3.3726,3.3723,3.3747,3.3877,3.3912,3.3925,3.3805,3.3806,3.3807,3.3881,0,3.4327,3.4316,3.4246,3.4255,3.424,3.4152,3.4149,3.4105,3.4058,3.4037,3.3984,3.3962,3.3905,3.3887,3.3889,3.3834,3.3867,3.3828,3.3796,3.3796,3.3811,3.3937,3.3974,3.4047,3.3889,3.3891,3.3892,0,3.4426,3.439,3.4398,3.4323,3.4314,3.4313,3.4268,3.4251,3.4197,3.4162,3.4131,3.407,3.406,3.4004,3.3988,3.3963,3.3945,3.3916,3.3917,3.391,3.3848,3.3931,3.4068,3.4079,3.3905,3.3904,3.3903,0,3.455,3.4503,3.4501,3.4479,3.4392,3.4393,3.4357,3.4301,3.428,3.4241,3.4226,3.4188,3.4166,3.4137,3.4066,3.4032,3.4057,3.3995,3.4026,3.4028,3.4034,3.4034,3.4169,3.4027,3.4027,3.4027,3.4027,0,3.4653,3.466,3.4555,3.4553,3.4558,3.4477,3.4484,3.444,3.439,3.4377,3.43,3.4289,3.4198,3.4176,3.4121,3.4114,3.4106,3.4076,3.4061,3.4082,3.4085,3.4068,3.406,3.403,3.4029,3.4029,3.4028,0,3.4791,3.4721,3.4712,3.4631,3.4611,3.4618,3.4547,3.4542,3.449,3.4474,3.4466,3.4384,3.4354,3.4281,3.4233,3.4195,3.4203,3.4177,3.4221,3.4211,3.4244,3.4241,3.4371,3.4382,3.4237,3.4238,3.424,0,3.486,3.4864,3.4782,3.4768,3.4735,3.4713,3.4691,3.4611,3.4591,3.4529,3.453,3.4494,3.4461,3.4418,3.4353,3.4315,3.4286,3.4333,3.4279,3.4299,3.4283,3.4283,3.4281,3.4345,3.4347,3.4349,3.435,0,3.4989,3.4954,3.4925,3.4884,3.486,3.4824,3.4783,3.4776,3.4685,3.4666,3.4635,3.4609,3.4559,3.4523,3.4475,3.4436,3.4377,3.4368,3.4372,3.4392,3.4417,3.4401,3.4251,3.4365,3.4363,3.4362,3.4361,3.4361,3.5092,3.509,3.5032,3.5002,3.4963,3.4926,3.4916,3.4862,3.4835,3.4787,3.4741,3.4714,3.4657,3.4586,3.4551,3.4527,3.4498,3.4505,3.4506,3.4509,3.4517,3.4423,3.4519,3.4518,3.4518,3.4517,3.4517,0,3.5215,3.5173,3.5146,3.5091,3.5067,3.5014,3.4966,3.4949,3.4926,3.4878,3.4847,3.4809,3.4774,3.4706,3.4664,3.4658,3.463,3.465,3.4648,3.464,3.4548,3.4546,3.4673,3.4673,3.4673,3.4673,3.4673,3.4673,3.5275,3.5268,3.5226,3.5197,3.5155,3.5127,3.5104,3.5069,3.503,3.4992,3.4962,3.4918,3.4861,3.4814,3.4779,3.4759,3.4746,3.4774,3.4747,3.4661,3.4647,3.4632,3.4631,3.4773,3.4773,3.484,3.484,3.4841]},{"header":{"parameterUnit":"m.s-1","parameterCategory":1,"la1":30.2991,"la2":30.254,"lo1":-89.0895,"lo2":-89.0444,"dy":0.0017,"dx":0.0017,"nx":28,"ny":28,"refTime":"2024-06-05T03:00:00:Z","depth":0,"parameterNumber":3,"parameterNumberName":"V-component_of_WINDS"},"data":[0,0,0,0,0,0,0,0,0,0,0,0,0,0,0,0,0,0,0,0,0,0,0,0,0,0,0,0,0,0,0,0,0,0,0,0,0,0,0,0,0,0,0,0,0,0,0,0,0,0,0,0,0,0,0,0,0,0,4.0497,4.0498,0,4.061,4.0611,4.0612,4.0611,4.061,4.0608,4.0607,4.0712,4.0716,4.072,0,0,0,0,0,0,0,0,0,0,0,0,0,4.027,4.0275,4.0497,4.0498,4.05,4.061,4.0611,4.0613,4.0611,4.0609,4.0608,4.0606,4.071,4.0715,4.072,0,0,0,0,0,0,0,0,0,0,0,0,0,4.0374,4.0276,4.0497,4.0513,4.0515,4.0609,4.0611,4.0613,4.0612,4.0609,4.0607,4.0605,4.0709,4.0715,4.0721,4.0804,0,0,4.074,4.0743,0,0,0,0,0,0,0,0,4.0368,4.0383,4.0509,4.0512,4.0515,4.0594,4.057,4.0676,4.0612,4.0575,4.0607,4.0604,4.0674,4.0683,4.0708,4.0808,4.0813,4.0741,4.0744,4.0747,4.0749,0,0,0,0,0,0,0,4.0361,4.0378,4.0541,4.0511,4.0514,4.0511,4.0523,4.059,4.0635,4.0578,4.0578,4.0592,4.0675,4.0702,4.0711,4.0815,4.0741,4.0746,4.075,4.0752,4.0987,4.0989,0,0,0,0,0,0,4.0352,4.0372,4.0538,4.0545,4.0435,4.0517,4.053,4.0571,4.0634,4.0642,4.0594,4.0591,4.0693,4.0704,4.0715,4.0815,4.0747,4.0753,4.0757,4.0984,4.0987,4.099,0,0,0,0,0,0,4.0347,4.0367,4.0533,4.0458,4.0479,4.0523,4.0568,4.0574,4.0602,4.0646,4.0653,4.0614,4.0692,4.0706,4.0782,4.0818,4.0756,4.0761,4.0981,4.0985,4.0989,4.1016,0,0,0,0,0,0,4.0341,4.0365,4.0399,4.0459,4.0483,4.0602,4.0571,4.0578,4.0614,4.0612,4.0667,4.0674,4.0691,4.0773,4.0788,4.0826,4.0766,4.0978,4.0983,4.0987,4.1012,4.102,4.1027,0,0,0,0,0,4.0333,4.04,4.0401,4.0421,4.0527,4.0604,4.0617,4.0638,4.0617,4.065,4.0678,4.0673,4.0812,4.0781,4.0798,4.0838,4.0976,4.0982,4.0987,4.1009,4.1019,4.1027,0,0,0,0,0,0,4.034,4.0408,4.041,4.05,4.0547,4.0604,4.0646,4.0648,4.0698,4.0694,4.0714,4.0727,4.0803,4.0828,4.0791,4.0921,4.0891,4.09,4.0901,4.0911,4.0919,4.091,4.0772,0,0,0,0,0,4.0352,4.0412,4.0468,4.0541,4.0565,4.0602,4.0635,4.0648,4.0695,4.0714,4.0748,4.0791,4.0845,4.088,4.0931,4.1016,4.1027,4.1052,4.106,4.1066,4.1073,4.1118,4.113,4.1008,4.1008,4.1008,0,0,4.0377,4.0423,4.0458,4.0544,4.0581,4.0639,4.0618,4.068,4.0723,4.0722,4.0797,4.0824,4.0873,4.0954,4.0991,4.0977,4.1109,4.1073,4.1077,4.1081,4.1125,4.1137,4.1147,4.1012,4.1011,4.1011,0,0,4.0453,4.0495,4.0561,4.0599,4.0658,4.0682,4.0698,4.0755,4.0774,4.0851,4.0851,4.09,4.0993,4.1028,4.1058,4.1149,4.1144,4.1165,4.1204,4.1248,4.1257,4.1266,4.1297,4.1308,4.1172,4.1172,4.1172,0,4.0476,4.0568,4.0593,4.0657,4.0693,4.07,4.0765,4.08,4.087,4.0894,4.0879,4.0995,4.1029,4.1118,4.114,4.1165,4.1181,4.1158,4.1255,4.1263,4.1272,4.1301,4.1313,4.1174,4.1174,4.1174,4.1173,0,4.0592,4.0656,4.0701,4.0774,4.0815,4.0879,4.0911,4.095,4.0958,4.0983,4.106,4.1101,4.1161,4.1183,4.1191,4.1273,4.1263,4.1251,4.1221,4.1285,4.1313,4.1325,4.1177,4.1176,4.1176,4.1175,0,0,4.0674,4.0762,4.0778,4.0811,4.0876,4.0924,4.0987,4.105,4.1082,4.113,4.1182,4.1261,4.1251,4.1285,4.1296,4.1335,4.1403,4.1318,4.132,4.1331,4.1494,4.1502,4.1515,4.1401,4.1404,4.1406,4.149,0,4.0756,4.0873,4.0897,4.0996,4.1054,4.1061,4.1116,4.116,4.1185,4.1235,4.1261,4.1316,4.1299,4.132,4.1359,4.1386,4.1435,4.1381,4.1447,4.1449,4.1433,4.153,4.1538,4.1615,4.1501,4.1503,4.1504,0,4.0867,4.0922,4.1028,4.1087,4.1112,4.1161,4.122,4.1269,4.1318,4.1334,4.1373,4.1381,4.1443,4.1412,4.1498,4.146,4.1488,4.1506,4.1509,4.1515,4.1479,4.1536,4.1641,4.1652,4.1522,4.152,4.1519,0,4.0914,4.1015,4.1092,4.112,4.119,4.1224,4.1254,4.1303,4.1339,4.1389,4.1412,4.1468,4.1498,4.154,4.1562,4.1538,4.1645,4.1616,4.1657,4.1657,4.1678,4.1676,4.1787,4.1699,4.1699,4.1698,4.1698,0,4.1002,4.1066,4.1114,4.1161,4.1232,4.1259,4.1328,4.1357,4.14,4.145,4.1459,4.1505,4.1532,4.1581,4.1598,4.1665,4.1679,4.169,4.1694,4.1689,4.1688,4.1707,4.1701,4.1701,4.1701,4.17,4.17,0,4.1066,4.1101,4.1185,4.1246,4.1263,4.1313,4.1363,4.1407,4.1433,4.1497,4.1513,4.1552,4.1611,4.1637,4.1708,4.172,4.1796,4.1796,4.178,4.1781,4.1821,4.1816,4.1946,4.1964,4.1865,4.1866,4.1867,0,4.1119,4.1169,4.1237,4.1274,4.1306,4.1364,4.1402,4.143,4.1468,4.1529,4.1565,4.1625,4.1674,4.1767,4.1799,4.1854,4.1854,4.1896,4.1862,4.1856,4.1853,4.185,4.1854,4.1902,4.1903,4.1903,4.1904,0,4.1209,4.1225,4.1281,4.1344,4.139,4.144,4.1488,4.1516,4.1551,4.1594,4.1656,4.1695,4.1769,4.1827,4.1884,4.1911,4.1913,4.1915,4.1927,4.1922,4.191,4.1916,4.1796,4.1911,4.1911,4.191,4.191,4.1909,4.1269,4.1314,4.1369,4.1431,4.1472,4.1517,4.1562,4.1595,4.1649,4.1714,4.1726,4.1792,4.1839,4.1916,4.1946,4.1996,4.1985,4.2003,4.2007,4.2011,4.2013,4.1904,4.2006,4.2006,4.2006,4.2005,4.2005,0,4.1358,4.1395,4.1452,4.1522,4.157,4.1572,4.1626,4.1665,4.1724,4.177,4.182,4.1891,4.1948,4.1986,4.2043,4.2075,4.2077,4.2089,4.2085,4.2092,4.2019,4.2003,4.2086,4.2086,4.2086,4.2086,4.2086,4.2086,4.141,4.1486,4.1509,4.1604,4.1639,4.1707,4.1737,4.1778,4.1815,4.1895,4.1944,4.197,4.2012,4.2073,4.2124,4.2134,4.2153,4.2165,4.2174,4.2105,4.2097,4.2089,4.2073,4.217,4.217,4.2242,4.2243,4.2243]}]]